Stations météo

Publicité
Bourges, France (7255): Température de l'air & dewpoint: 13.01.2018 06:00:00 - 19.01.2018 06:00:00 (CET)Bourges, France (7255): Température de l'air 5cm: 13.01.2018 06:00:00 - 19.01.2018 06:00:00 (CET)Bourges, France (7255): Température de l'air -20cm & Température de l'air -100cm: 13.01.2018 06:00:00 - 19.01.2018 06:00:00 (CET)Bourges, France (7255): Vitesse du vent & gusts: 13.01.2018 06:00:00 - 19.01.2018 06:00:00 (CET)Bourges, France (7255): Direction du vent: 13.01.2018 06:00:00 - 19.01.2018 06:00:00 (CET)Bourges, France (7255): reduced air pressure: 13.01.2018 06:00:00 - 19.01.2018 06:00:00 (CET)Bourges, France (7255): visibility: 13.01.2018 06:00:00 - 19.01.2018 06:00:00 (CET)Bourges, France (7255): Ensoleillement: 13.01.2018 06:00:00 - 19.01.2018 06:00:00 (CET)Bourges, France (7255): Quantités de précipitations: 13.01.2018 06:00:00 - 19.01.2018 06:00:00 (CET)
Date & Time tt [°C] td [°C] tt 5cm [°C] tt -20cm [°C] tt -100cm [°C] ff [km/h] ff [knt] fx [km/h] fx [knt] dd ppp [hPa] vv [km] sd [min] rr [mm]
19.01.2018 06:00:00 5,2 3,7 3,9 7,8 8,9 9 5 17 9 W 1016,1 20 0 0,0
19.01.2018 05:00:00 5,7 4,2 4,9 7,9 8,9 11 6 27 15 W 1015,7 20 0 0,0
19.01.2018 04:00:00 6,6 4,9 6,0 8,0 8,8 15 8 31 17 W 1015,5 18 0 0,0
19.01.2018 03:00:00 7,1 5,1 6,7 8,1 8,8 13 7 29 16 W 1015,3 20 0 0,0
19.01.2018 02:00:00 7,7 5,5 7,2 8,2 8,8 16 9 32 17 W 1014,7 20 0 0,0
19.01.2018 01:00:00 8,3 6,1 7,8 8,2 8,8 16 9 34 18 W 1014,4 20 0 0,0
19.01.2018 00:00:00 8,9 6,7 8,2 8,3 8,8 15 8 31 17 W 1013,9 20 0 0,0
18.01.2018 23:00:00 9,7 7,5 9,1 8,3 8,8 18 10 37 20 W 1013,2 20 0 0,0
18.01.2018 22:00:00 10,1 7,9 9,4 8,3 8,9 19 10 38 20 W 1012,7 20 0 0,0
18.01.2018 21:00:00 11,0 8,6 9,9 8,2 8,9 22 12 50 27 W 1012,3 20 0 0,0
18.01.2018 20:00:00 11,2 9,6 10,1 8,2 8,8 26 14 60 32 W 1011,8 20 0 0,0
18.01.2018 19:00:00 10,8 10,2 10,3 8,1 8,8 29 16 53 29 WSW 1011,4 9 0 0,0
18.01.2018 18:00:00 10,8 10,0 10,3 8,0 8,8 29 16 54 29 WSW 1011,0 12 0 0,0
18.01.2018 17:00:00 10,8 9,9 10,1 7,9 8,9 32 17 65 35 WSW 1011,4 18 0 0,2
18.01.2018 16:00:00 10,4 9,8 10,0 7,7 8,9 32 17 57 31 WSW 1011,4 3,6 0 0,2
18.01.2018 15:00:00 10,4 9,6 9,9 7,6 8,9 28 15 59 32 WSW 1011,8 6 0 0,6
18.01.2018 14:00:00 10,1 9,2 9,6 7,4 8,9 32 18 57 31 WSW 1012,5 11 0 1,0
18.01.2018 13:00:00 9,9 9,0 9,3 7,2 8,9 29 16 64 34 WSW 1013,2 8 0 0,8
18.01.2018 12:00:00 9,4 8,6 9,0 7,1 8,9 36 19 69 37 WSW 1013,7 4,6 0 1,0
18.01.2018 11:00:00 9,2 8,4 8,6 7,0 8,9 32 18 59 32 WSW 1014,0 4,8 0 0,8
18.01.2018 10:00:00 8,8 8,0 8,0 6,9 8,9 36 19 63 34 WSW 1014,2 4,6 0 0,6
18.01.2018 09:00:00 8,5 7,6 7,6 6,8 8,9 34 18 63 34 WSW 1014,0 8 0 0,0
18.01.2018 08:00:00 8,1 7,2 7,3 6,8 8,9 34 18 63 34 WSW 1014,1 11 0 0,0
18.01.2018 07:00:00 7,7 6,9 7,1 6,7 8,9 36 20 60 33 WSW 1014,5 4,7 0 0,0
18.01.2018 06:00:00 7,7 6,3 7,1 6,6 8,9 33 18 61 33 WSW 1015,0 13 0 0,0
18.01.2018 05:00:00 7,8 5,4 6,7 6,5 8,9 30 16 60 32 WSW 1015,4 19 0 0,0
18.01.2018 04:00:00 7,7 5,2 6,4 6,5 8,9 29 16 54 29 WSW 1016,2 20 0 0,0
18.01.2018 03:00:00 6,8 5,3 6,0 6,5 8,9 27 15 48 26 SW 1017,2 19 0 0,0
18.01.2018 02:00:00 6,5 4,5 5,9 6,5 8,9 25 13 41 22 SW 1018,2 20 0 0,0
18.01.2018 01:00:00 6,3 4,0 6,0 6,5 8,9 23 12 44 24 WSW 1019,8 20 0 0,0
18.01.2018 00:00:00 6,2 3,7 5,6 6,6 8,9 24 13 47 25 WSW 1020,1 20 0 0,0
17.01.2018 23:00:00 6,0 3,3 5,1 6,7 8,9 21 12 36 19 WSW 1020,4 20 0 0,0
17.01.2018 22:00:00 5,6 2,4 4,9 6,7 8,9 21 11 38 21 WSW 1020,3 20 0 0,0
17.01.2018 21:00:00 6,0 1,7 5,4 6,9 8,9 19 10 35 19 WSW 1020,9 20 0 0,0
17.01.2018 20:00:00 6,0 1,1 5,0 7,0 8,9 20 11 37 20 WSW 1020,8 20 0 0,0
17.01.2018 19:00:00 6,4 0,9 5,5 7,1 8,9 17 9 31 17 WSW 1020,6 20 0 0,0
17.01.2018 18:00:00 6,8 1,1 6,1 7,2 8,9 18 10 49 26 W 1020,4 20 4 0,0
17.01.2018 17:00:00 7,7 1,1 7,2 7,2 8,9 18 10 40 21 W 1020,3 20 20 0,0
17.01.2018 16:00:00 7,7 0,2 7,6 7,1 8,9 23 12 43 23 W 1019,8 20 29 0,0
17.01.2018 15:00:00 7,5 0,9 7,5 7,1 8,9 20 11 45 25 W 1019,5 20 25 0,0
17.01.2018 14:00:00 7,7 0,9 7,5 6,9 8,9 22 12 50 27 W 1019,3 20 22 0,0
17.01.2018 13:00:00 7,7 1,5 7,3 6,8 8,9 26 14 46 25 W 1019,3 20 47 0,0
17.01.2018 12:00:00 6,5 1,4 5,9 6,8 8,9 17 9 42 23 W 1019,3 20 12 0,0
17.01.2018 11:00:00 5,7 1,2 5,4 6,9 8,9 23 12 44 24 W 1018,2 20 3 0,0
17.01.2018 10:00:00 5,3 1,2 3,9 6,9 8,8 19 10 39 21 W 1016,8 20 23 0,0
17.01.2018 09:00:00 4,5 2,2 3,2 7,1 8,9 16 9 49 26 W 1015,5 17 0 0,0
17.01.2018 08:00:00 5,5 0,5 5,1 7,2 8,9 19 10 48 26 W 1014,2 20 0 0,0
17.01.2018 07:00:00 5,6 0,6 5,3 7,3 8,8 24 13 46 25 W 1013,3 20 0 0,0
17.01.2018 06:00:00 5,8 0,7 5,3 7,4 8,8 21 11 50 27 W 1012,3 20 0 0,0
17.01.2018 05:00:00 5,9 1,2 4,3 7,5 8,8 21 11 65 35 W 1011,3 20 0 0,0
17.01.2018 04:00:00 6,2 2,6 5,3 7,6 8,9 29 16 59 32 W 1010,4 18 0 0,0
17.01.2018 03:00:00 7,0 2,9 6,6 7,7 8,8 26 14 56 30 W 1009,4 20 0 0,0
17.01.2018 02:00:00 7,1 3,2 6,6 7,8 8,8 27 15 58 32 W 1008,3 20 0 0,0
17.01.2018 01:00:00 7,9 3,7 7,5 7,9 8,8 25 14 53 28 W 1007,8 20 0 0,0
17.01.2018 00:00:00 8,2 3,4 6,9 8,0 8,8 29 15 68 37 W 1007,6 20 0 0,0
16.01.2018 23:00:00 8,5 3,9 7,9 8,1 8,8 28 15 55 30 WSW 1007,3 20 0 0,0
16.01.2018 22:00:00 8,5 4,5 7,8 8,2 8,8 23 13 53 28 W 1007,2 20 0 0,0
16.01.2018 21:00:00 8,8 4,8 8,0 8,3 8,8 29 16 59 32 W 1007,3 20 0 0,0
16.01.2018 20:00:00 8,8 5,4 8,3 8,4 8,8 26 14 61 33 W 1007,1 20 0 0,0
16.01.2018 19:00:00 10,3 4,9 9,8 8,5 8,8 34 18 66 36 W 1007,0 20 0 0,0
16.01.2018 18:00:00 10,7 5,9 10,2 8,5 8,8 32 18 70 38 W 1007,0 20 2 0,0
16.01.2018 17:00:00 10,9 6,2 9,8 8,5 8,9 27 15 56 30 W 1006,8 20 24 0,0
16.01.2018 16:00:00 10,9 8,3 9,2 8,4 8,8 25 14 50 27 WSW 1006,9 20 11 0,4
16.01.2018 15:00:00 12,0 7,3 12,2 8,2 8,9 32 17 67 36 W 1007,4 19 38 0,0
16.01.2018 14:00:00 11,7 7,6 10,8 8,1 8,8 33 18 65 35 W 1008,2 20 29 0,0
16.01.2018 13:00:00 12,0 6,3 12,2 8,0 8,8 33 18 63 34 W 1008,7 20 22 0,0
16.01.2018 12:00:00 11,8 6,5 11,1 7,8 8,8 31 17 64 35 W 1009,1 20 38 0,0
16.01.2018 11:00:00 10,7 7,9 9,2 7,8 8,9 33 18 71 38 WSW 1009,2 20 7 0,0
16.01.2018 10:00:00 10,1 7,9 8,8 7,7 8,8 29 16 54 29 WSW 1008,8 20 1 0,4
16.01.2018 09:00:00 9,7 8,1 9,1 7,7 8,9 34 18 61 33 WSW 1008,5 20 0 0,0
16.01.2018 08:00:00 10,0 8,1 8,8 7,6 8,9 29 16 55 30 WSW 1007,6 20 0 0,0
16.01.2018 07:00:00 9,8 7,9 8,7 7,6 8,9 27 14 52 28 WSW 1007,5 20 0 0,2
16.01.2018 06:00:00 9,0 8,4 8,2 7,6 8,9 19 10 64 34 W 1007,7 3,2 0 0,4
16.01.2018 05:00:00 9,6 7,9 8,7 7,6 8,9 29 15 61 33 WSW 1007,9 6 0 0,2
16.01.2018 04:00:00 9,6 7,7 8,5 7,5 8,9 24 13 61 33 WSW 1008,0 20 0 0,0
16.01.2018 03:00:00 10,0 7,8 8,8 7,4 8,9 32 18 58 31 WSW 1007,5 20 0 0,2
16.01.2018 02:00:00 10,0 7,9 9,0 7,4 8,9 31 17 55 30 WSW 1007,8 20 0 0,0
16.01.2018 01:00:00 10,0 8,3 8,9 7,3 8,9 23 12 43 23 WSW 1008,4 20 0 0,0
16.01.2018 00:00:00 9,8 8,4 9,0 7,2 8,9 22 12 46 25 WSW 1009,1 13 0 0,2
15.01.2018 23:00:00 9,6 8,5 8,6 7,1 8,9 25 14 47 26 WSW 1008,7 20 0 0,0
15.01.2018 22:00:00 9,0 8,2 7,8 7,1 8,9 29 16 54 29 SW 1008,5 20 0 0,2
15.01.2018 21:00:00 8,7 7,8 7,9 7,0 8,9 32 17 55 30 SW 1008,4 19 0 0,0
15.01.2018 20:00:00 8,3 7,5 7,4 7,0 8,9 36 19 56 31 SW 1008,5 6 0 1,4
15.01.2018 19:00:00 8,1 6,9 7,1 7,0 8,9 38 20 64 34 SW 1008,4 7 0 0,8
15.01.2018 18:00:00 7,9 6,2 6,9 6,9 8,9 41 22 74 40 SW 1008,6 18 0 0,2
15.01.2018 17:00:00 8,1 5,7 6,9 6,8 8,9 43 23 67 36 SW 1009,0 18 0 0,6
15.01.2018 16:00:00 7,9 6,0 7,0 6,8 8,9 32 17 59 32 SSW 1010,5 11 0 0,6
15.01.2018 15:00:00 7,9 5,4 6,7 6,7 8,9 30 16 47 26 SSW 1012,2 20 0 0,2
15.01.2018 14:00:00 8,1 5,2 7,4 6,5 8,9 27 15 41 22 SSW 1014,4 20 0 0,0
15.01.2018 13:00:00 7,8 4,7 7,9 6,5 9,0 24 13 36 20 SW 1015,8 20 0 0,0
15.01.2018 12:00:00 7,5 4,4 7,3 6,4 8,9 21 12 40 22 SW 1016,9 20 0 0,0
15.01.2018 11:00:00 7,2 4,2 7,1 6,3 8,9 22 12 37 20 SW 1017,6 20 0 0,0
15.01.2018 10:00:00 6,7 3,8 6,1 6,3 8,9 20 11 28 15 SSW 1018,2 20 0 0,0
15.01.2018 09:00:00 6,3 3,5 5,1 6,3 8,9 16 9 24 13 SW 1019,2 20 0 0,0
15.01.2018 08:00:00 5,9 3,1 5,0 6,4 9,0 13 7 24 13 SSW 1019,4 20 0 0,0
15.01.2018 07:00:00 5,6 3,3 4,8 6,4 9,0 16 9 23 12 SSW 1019,3 20 0 0,0
15.01.2018 06:00:00 5,0 3,2 4,6 6,4 9,0 11 6 18 10 SSW 1019,6 20 0 0,0
15.01.2018 05:00:00 5,5 3,2 4,5 6,5 9,0 12 6 18 10 SW 1019,8 20 0 0,0
15.01.2018 04:00:00 4,9 3,6 2,2 6,6 9,0 10 5 14 7 SSW 1020,5 20 0 0,0
15.01.2018 03:00:00 3,5 3,1 0,3 6,8 9,0 5 3 9 5 SSW 1021,0 20 0 0,0
15.01.2018 02:00:00 4,1 3,5 1,4 7,0 9,0 4 2 13 7 SW 1021,1 18 0 0,0
15.01.2018 01:00:00 5,1 4,1 2,8 7,1 9,0 8 4 16 9 SW 1020,9 16 0 0,0
15.01.2018 00:00:00 5,5 4,5 3,8 7,1 9,0 9 5 11 6 SSW 1020,8 14 0 0,0
14.01.2018 23:00:00 6,6 5,1 6,1 7,1 9,0 6 3 8 4 S 1020,7 20 0 0,0
14.01.2018 22:00:00 7,0 4,8 6,4 7,1 9,0 4 2 8 4 E 1020,6 20 0 0,0
14.01.2018 21:00:00 6,9 4,9 6,6 7,1 9,0 5 3 9 5 ESE 1019,9 20 0 0,0
14.01.2018 20:00:00 7,5 5,0 6,8 7,2 9,0 6 3 8 4 E 1019,7 20 0 0,0
14.01.2018 19:00:00 8,0 4,9 6,5 7,2 9,0 5 3 8 4 ENE 1018,8 19 0 0,0
14.01.2018 18:00:00 7,6 4,7 5,1 7,2 9,0 4 2 7 4 NE 1018,3 20 0 0,0
14.01.2018 17:00:00 8,2 4,8 5,9 7,1 9,0 4 2 5 3 N 1017,8 20 0 0,0
14.01.2018 16:00:00 10,7 4,8 10,7 6,8 9,0 3 1 10 5 E 1017,3 20 38 0,0
14.01.2018 15:00:00 11,2 5,1 11,8 6,5 9,0 4 2 11 6 E 1017,2 20 47 0,0
14.01.2018 14:00:00 10,3 5,1 10,8 6,1 9,0 3 1 9 5 SSE 1016,9 20 16 0,0
14.01.2018 13:00:00 8,8 4,4 10,9 5,9 9,1 7 4 16 8 ESE 1017,2 20 53 0,0
14.01.2018 12:00:00 7,5 3,7 8,9 5,7 9,0 7 4 14 8 E 1017,7 12 60 0,0
14.01.2018 11:00:00 5,8 2,6 4,0 5,7 9,1 9 5 12 7 E 1017,9 19 55 0,0
14.01.2018 10:00:00 3,0 1,8 2,2 5,8 9,1 8 5 10 5 E 1017,6 10 0 0,0
14.01.2018 09:00:00 2,2 1,0 2,0 5,8 9,1 9 5 11 6 E 1017,2 8 0 0,0
14.01.2018 08:00:00 2,4 1,2 2,3 5,9 9,1 9 5 12 6 E 1016,5 7 0 0,0
14.01.2018 07:00:00 2,5 1,3 2,4 5,9 9,1 10 5 14 8 E 1016,2 7 0 0,0
14.01.2018 06:00:00 2,6 1,6 2,4 6,0 9,1 11 6 14 7 E 1016,0 6 0 0,0
14.01.2018 05:00:00 2,2 1,5 2,0 6,0 9,1 8 4 9 5 E 1015,9 4,7 0 0,0
14.01.2018 04:00:00 2,4 1,7 2,2 6,1 9,1 8 4 11 6 E 1016,0 4,0 0 0,0
14.01.2018 03:00:00 2,3 1,7 2,0 6,1 9,1 8 4 13 7 E 1015,9 4,8 0 0,0
14.01.2018 02:00:00 2,3 1,6 2,2 6,2 9,1 11 6 13 7 E 1015,9 4,0 0 0,0
14.01.2018 01:00:00 2,4 1,7 2,3 6,3 9,1 9 5 13 7 E 1016,2 3,9 0 0,0
14.01.2018 00:00:00 2,5 1,6 2,3 6,4 9,1 9 5 13 7 E 1016,5 4,0 0 0,0
13.01.2018 23:00:00 2,5 1,5 2,4 6,5 9,1 10 5 13 7 E 1016,2 4,2 0 0,0
13.01.2018 22:00:00 2,7 1,7 2,5 6,7 9,1 9 5 15 8 E 1016,4 4,4 0 0,0
13.01.2018 21:00:00 2,6 1,9 2,2 6,8 9,1 12 7 16 9 E 1016,4 4,7 0 0,0
13.01.2018 20:00:00 2,9 1,9 2,7 7,0 9,1 13 7 16 8 E 1016,6 5 0 0,0
13.01.2018 19:00:00 3,6 2,0 3,2 7,1 9,1 12 6 17 9 E 1016,5 7 0 0,0
13.01.2018 18:00:00 4,7 2,7 4,1 7,1 9,1 13 7 18 10 E 1016,5 10 0 0,0
13.01.2018 17:00:00 5,7 3,0 5,8 7,0 9,1 14 8 21 12 E 1016,7 15 42 0,0
13.01.2018 16:00:00 6,4 3,2 6,9 6,9 9,1 16 9 26 14 E 1016,7 17 2 0,0
13.01.2018 15:00:00 6,8 3,4 7,4 6,8 9,1 14 7 24 13 E 1017,0 16 46 0,0
13.01.2018 14:00:00 5,9 3,6 6,1 6,6 9,1 14 8 25 13 E 1017,7 14 42 0,0
13.01.2018 13:00:00 5,4 3,6 5,1 6,6 9,1 19 11 26 14 E 1018,6 16 52 0,0
13.01.2018 12:00:00 3,8 2,9 3,3 6,5 9,1 17 9 23 13 E 1020,0 8 35 0,0
13.01.2018 11:00:00 3,0 3,0 3,3 6,5 9,1 18 10 22 12 E 1020,4 3,3 0 0,0
13.01.2018 10:00:00 3,2 3,2 3,1 6,5 9,1 14 8 19 11 E 1020,6 4,2 13 0,0
13.01.2018 09:00:00 3,1 3,1 3,0 6,5 9,1 9 5 16 9 ESE 1021,2 3,8 0 0,0
13.01.2018 08:00:00 2,7 2,7 2,7 6,6 9,2 13 7 19 11 ESE 1021,1 0,3 0 0,0
13.01.2018 07:00:00 2,6 2,6 2,7 6,6 9,1 10 5 19 10 ESE 1021,7 0,4 0 0,0
13.01.2018 06:00:00 2,5 2,5 2,7 6,6 9,1 16 8 20 11 ESE 1022,2 0,5 0 0,0

tt = Température de l'air
td = dewpoint
tt 5cm = Température de l'air 5cm
tt -20cm = Température de l'air -20cm
tt -100cm = Température de l'air -100cm
ff = Vitesse du vent
fx = gusts
dd = Direction du vent
ppp = reduced air pressure
vv = visibility
sd = Ensoleillement
rr = Quantités de précipitations

stations d'obs. à proximité